Regional Weather Roundup
Issued by NWS

Home | Current Version | Previous Version | Graphics & Text | Print | Product List | Glossary Off
Versions: 1 2 3 4 5 6 7 8 9 10 11 12 13 14 15 16 17 18 19 20 21 22 23 24 25 26 27 28 29 30 31 32 33 34 35 36 37 38 39 40 41 42 43 44 45 46 47 48 49 50

000
ASUS43 KMPX 080910
RWRMN
WEATHER ROUNDUP FOR MINNESOTA
NATIONAL WEATHER SERVICE TWIN CITIES/CHANHASSEN MN
300 AM CST MON FEB 08 2016


NOTE: "FAIR" INDICATES FEW OR NO CLOUDS BELOW 12,000 FEET WITH NO
SIGNIFICANT WEATHER AND/OR OBSTRUCTIONS TO VISIBILITY. N/A MEANS
CURRENT SKY AND/OR WEATHER CONDITIONS ARE NOT AVAILABLE.

MNZ060>063-068>070-081000-
   Twin Cities Metro

CITY           SKY/WX    TMP DP  RH WIND       PRES   REMARKS
TWIN CITIES    FLURRIES  15   8  73 NW15      29.79S WCI   0
ST PAUL        FLURRIES  15   8  73 NW18      29.80R WCI  -2
CRYSTAL        FLURRIES  15   7  70 NW17G26   29.79R WCI  -1
BLAINE         FLURRIES  16  10  79 NW14      29.78S WCI   1
LAKEVILLE      LGT SNOW  12   9  85 NW20      29.78S WCI  -6
EDEN PRAIRIE   FLURRIES  15   7  70 NW15G24   29.79S WCI   0
SOUTH ST PAUL  CLOUDY    16   9  71 NW17      29.78S WCI   0
LAKE ELMO      LGT SNOW  18  12  79 NW13G21   29.77S WCI   4
$$
MNZ001>005-007-008-013>017-022>024-027-028-081000-
   Northwest Minnesota

CITY           SKY/WX    TMP DP  RH WIND       PRES   REMARKS
BEMIDJI        LGT SNOW   4  -1  80 NW16G22   29.90R WCI -15
HALLOCK        CLOUDY    10   7  85 N22G30    30.09R FOG     WCI  -9
ROSEAU         FLURRIES   7   0  72 NW15      30.00R WCI -11
WARROAD        CLOUDY     3  -2  78 NW16G24   29.98R WCI -16
CROOKSTON      LGT SNOW  10   9  92 N30       30.07R VSB 3/4 WCI -12
FOSSTON        LGT SNOW   3   1  92 NW23      29.98R WCI -19
DETROIT LAKES  MIX PCPN   9   5  85 N25G40    29.96R WCI -13
MOORHEAD       MIX PCPN  12   9  85 N23       30.05R WCI  -7
PARK RAPIDS    LGT SNOW   6  -1  73 NW16G25   29.89R WCI -12
MAHNOMEN       LGT SNOW   7   3  83 N17G23    29.98R WCI -11
$$
MNZ006-009>011-018-025>026-081000-
   North Central Minnesota

CITY           SKY/WX    TMP DP  RH WIND       PRES   REMARKS
BAUDETTE       LGT SNOW   4  -2  76 NW20      29.92R VSB 1   WCI -17
FLAG ISLAND    CLOUDY     3  -2  78 NW25      29.95R HAZE    WCI -20
INTL FALLS     LGT SNOW   7   2  80 NW14G22   29.84R WCI -10
WASKISH        LGT SNOW   5   0  78 NW10G17   29.92R WCI -10
LONGVILLE      CLOUDY     5   0  78 NW12G21   29.86R WCI -11
GRAND RAPIDS   CLOUDY     7   0  72 NW20      29.81R WCI -13
CRANE LAKE     CLOUDY     9   7  92 NW6       29.81R WCI  -1
ORR            CLOUDY     7   1  78 NW10G16   29.77R WCI  -8
COOK           CLOUDY     7   3  85 NW13G20   29.79R WCI  -9
WALKER         CLOUDY     4  -2  77 NW15G23   29.88S HAZE    WCI -14
$$
MNZ012-019>021-037-081000-
   Northeast Minnesota

CITY           SKY/WX    TMP DP  RH WIND       PRES   REMARKS
DULUTH         LGT SNOW  11   6  81 NW23G32   29.68R VSB 3/4 WCI  -9
ELY            FLURRIES  10   9  92 N6        29.73R WCI   1
HIBBING        MIX PCPN   7   3  84 NW23G29   29.76R FOG     WCI -14
EVELETH        LGT SNOW  12   9  85 NW13G20   29.76R WCI  -3
DULUTH HARBOR  CLOUDY    18  10  73 NW16      29.75R WCI   3
TWO HARBORS    LGT SNOW  19  12  73 N6G16     29.66R WCI  11
SILVER BAY     LGT SNOW  18  10  73 NW8G18    29.65R WCI   7
GRAND MARAIS     N/A     15   8  73 VRB5      29.68R WCI   8
G MARAIS ARPRT LGT SNOW   7   1  78 NW13G21   29.61R WCI  -9
$$
MNZ029>031-032-039>041-046>048-054>057-064-081000-
   West Central Minnesota

CITY           SKY/WX    TMP DP  RH WIND       PRES   REMARKS
FERGUS FALLS   LGT SNOW  10   7  85 N23G39    30.01R WCI -10
WHEATON        LGT SNOW  16  12  86 NW26G39   30.05R WCI  -3
MORRIS         SNOW      12   9  85 N31G41    29.95S VSB 1/2 WCI -10
ALEXANDRIA     LGT SNOW   8   3  80 N21G28    29.91R WCI -12
ELBOW LAKE     LGT SNOW  10   6  82 NW21G36   29.97R WCI  -9
WADENA         LGT SNOW   7   1  78 NW17G25   29.90R WCI -12
GLENWOOD       LGT SNOW   9   5  85 NW18G28   29.91R WCI -10
APPLETON       LGT SNOW  16  10  79 N23G31    29.98R WCI  -2
BENSON         LGT SNOW  12   9  85 N31G38    29.93R WCI -10
ORTONVILLE     LGT SNOW  16  10  79 N26G32    30.00R WCI  -3
MADISON        LGT SNOW  18  12  79 N26G36    29.99S VSB 1   WCI  -1
WILLMAR        LGT SNOW  12   9  85 NW22G31   29.91S WCI  -7
$$
MNZ033>034-036-042>043-049>051-058-059-081000-
   Central Minnesota

CITY           SKY/WX    TMP DP  RH WIND       PRES   REMARKS
ST CLOUD       CLOUDY    12   4  70 NW18G30   29.83R WCI  -6
SAUK CENTRE    LGT SNOW   9   5  82 NW18G26   29.89R WCI -10
PAYNESVILLE    CLOUDY    10   6  81 NW18G26   29.88R WCI  -8
AITKIN         MIX PCPN  10   1  67 NW15      29.81R WCI  -6
PINE RIVER     CLOUDY     7   0  72 NW16      29.90R WCI -11
BRAINERD       FLURRIES   8   2  76 NW17G24   29.85R WCI -10
STAPLES        CLOUDY     7   0  72 N17G24    29.88R WCI -12
LONG PRAIRIE   LGT SNOW   9   3  78 NW17G25   29.88R WCI -10
LITTLE FALLS   CLOUDY    10   1  67 NW14G25   29.87R WCI  -5
LITCHFIELD     CLOUDY    12   7  79 NW21G31   29.86R WCI  -6
BUFFALO        CLOUDY    14   7  73 NW15G23   29.84R WCI  -2
MAPLE LAKE     CLOUDY    14   8  76 NW14G24   29.84R WCI  -1
$$
MNZ037-044-045-052-053-081000-
   East Central Minnesota

CITY           SKY/WX    TMP DP  RH WIND       PRES   REMARKS
PRINCETON      CLOUDY    14   7  73 NW17G24   29.80R WCI  -3
MORA           CLOUDY    12   5  73 NW16G31   29.80R WCI  -4
CAMBRIDGE      FLURRIES  16   7  67 NW8G17    29.78R WCI   5
RUSH CITY      CLOUDY    14   9  79 NW14      29.78S WCI  -1
MOOSE LAKE     LGT SNOW  12   7  79 NW12G20   29.74S WCI  -2
HINCKLEY       FLURRIES  14   9  79 NW16      29.76S WCI  -2
CLOQUET        LGT SNOW  10   7  85 NW21G29   29.72R WCI  -9
MCGREGOR       CLOUDY    10   5  79 NW14G21   29.80R WCI  -5
$$
MNZ071>073-080-081-089-090-097-098-081000-
   Southwest Minnesota

CITY           SKY/WX    TMP DP  RH WIND       PRES   REMARKS
MONTEVIDEO     LGT SNOW  14  12  92 N26G36    29.98R VSB 1   WCI  -6
GRANITE FALLS  LGT SNOW  16  12  85 NW28G35   29.98R WCI  -4
CANBY          LGT SNOW  20  17  89 NW23G31   30.00R WCI   3
MARSHALL       LGT SNOW  15  12  88 N32G39    29.95R VSB 3/4 WCI  -6
REDWOOD FALLS  LGT SNOW  13   7  77 NW24G40   29.91R WCI  -7
OLIVIA         CLOUDY    16  10  79 NW24G36   29.90R HAZE    WCI  -3
PIPESTONE      CLOUDY    19  10  68 N20G33    29.94R WCI   4
WINDOM         HVY SNOW  12  10  92 NW38G47   29.87R VSB 1/4 WCI -11
WORTHINGTON    CLOUDY   N/A N/A N/A NW30G36   29.92R
JACKSON        CLOUDY    14  10  85 NW35G47   29.86S WCI  -8
TRACY          LGT SNOW  16  13  88 NW30G37   29.94R VSB 1   WCI  -4
SLAYTON        LGT SNOW  15  13  93 NW23G33   29.92R WCI  -4
$$
MNZ065>067-074>077-082>085-091>093-081000-
   South Central Minnesota

CITY           SKY/WX    TMP DP  RH WIND       PRES   REMARKS
MANKATO        CLOUDY    12   7  79 NW23G29   29.82R WCI  -7
NEW ULM        CLOUDY    12   7  79 NW26G35   29.83F HAZE    WCI  -8
ST JAMES       LGT SNOW  14  10  85 NW30G37   29.87S VSB 3/4 WCI  -7
FAIRMONT       CLOUDY   N/A N/A N/A NW33G43   29.82R VSB 1
GLENCOE        CLOUDY    14   8  78 NW20G32   29.83S WCI  -3
FARIBAULT      LGT SNOW  12   9  85 NW14G24   29.79R WCI  -3
OWATONNA       LGT SNOW  14   9  79 NW23      29.77S WCI  -5
WASECA         CLOUDY    14   9  79 NW24      29.81R HAZE    WCI  -5
ALBERT LEA     LGT SNOW  12   9  85 NW18G26   29.77R WCI  -5
$$
MNZ078>079-086>088-094>096-081000-
   Southeast Minnesota

CITY           SKY/WX    TMP DP  RH WIND       PRES   REMARKS
ROCHESTER      LGT SNOW  14   9  80 NW24G33   29.71S WCI  -5
RED WING       FLURRIES  18   9  68 NW8G18    29.75S WCI   7
STANTON        FLURRIES  16  10  78 NW15      29.77R WCI   1
DODGE CENTER   LGT SNOW  12   9  85 NW17G25   29.73R WCI  -5
WINONA         FLURRIES  19  14  79 NW14      29.73S WCI   6
AUSTIN         LGT SNOW  12  10  92 NW16G24   29.75R WCI  -4
PRESTON        FLURRIES  14   9  79 NW14G24   29.71S WCI   0
$$
ABBREVIATIONS USED IN REMARKS
   TC - TEMPERATURES IN CELSIUS
  WCI - WIND CHILL INDEX
   HX - HEAT INDEX
  VSB - VISIBILITY
$$



USA.gov is the U.S. government's official web portal to all federal, state and local government web resources and services.